[[{"header":{"parameterUnit":"m.s-1","parameterCategory":1,"la1":30.2991,"la2":30.254,"lo1":-89.0895,"lo2":-89.0444,"dy":0.0017,"dx":0.0017,"nx":28,"ny":28,"refTime":"2025-05-17T03:00:00:Z","depth":0,"parameterNumber":2,"parameterNumberName":"U-component_of_WINDS"},"data":[0,0,0,0,0,0,0,0,0,0,0,0,0,0,0,0,0,0,0,0,0,0,0,0,0,0,0,0,0,0,0,0,0,0,0,0,0,0,0,0,0,0,0,0,0,0,0,0,0,0,0,0,0,0,0,0,0,0,0.9007,0.9008,0,0.9055,0.9055,0.9056,0.9041,0.904,0.9039,0.9038,0.9087,0.909,0.9092,0,0,0,0,0,0,0,0,0,0,0,0,0,0.8904,0.8906,0.9007,0.9008,0.9009,0.9055,0.9055,0.9056,0.9041,0.904,0.9039,0.9038,0.9087,0.9089,0.9092,0,0,0,0,0,0,0,0,0,0,0,0,0,0.895,0.8907,0.9007,0.9007,0.9007,0.9055,0.9055,0.9056,0.9042,0.904,0.9039,0.9037,0.9086,0.9089,0.9092,0.9143,0,0,0.9103,0.9104,0,0,0,0,0,0,0,0,0.8947,0.8954,0.9006,0.9007,0.9007,0.9041,0.9037,0.9085,0.9042,0.9029,0.9038,0.9037,0.9073,0.9077,0.909,0.9145,0.9148,0.9103,0.9105,0.9106,0.9107,0,0,0,0,0,0,0,0.8944,0.8952,0.9026,0.9007,0.9008,0.9004,0.9009,0.9046,0.9059,0.903,0.9029,0.9034,0.9073,0.9086,0.9091,0.9148,0.9103,0.9106,0.9108,0.9109,0.9247,0.9249,0,0,0,0,0,0,0.894,0.8949,0.9025,0.9028,0.8973,0.9007,0.9013,0.9031,0.9058,0.9061,0.9036,0.9034,0.9081,0.9087,0.9092,0.9153,0.9106,0.911,0.9112,0.9245,0.9247,0.9249,0,0,0,0,0,0,0.8938,0.8947,0.9023,0.8988,0.8997,0.9011,0.9032,0.9033,0.9046,0.9063,0.9065,0.9047,0.908,0.9088,0.913,0.9154,0.9111,0.9114,0.9243,0.9246,0.9248,0.9274,0,0,0,0,0,0,0.8935,0.8947,0.8966,0.8989,0.8999,0.906,0.9033,0.9035,0.9052,0.905,0.9074,0.9076,0.908,0.9125,0.9134,0.9158,0.9117,0.9241,0.9245,0.9248,0.9272,0.9278,0.9283,0,0,0,0,0,0.8932,0.8972,0.8967,0.8977,0.9024,0.9061,0.9068,0.907,0.9054,0.9074,0.9084,0.9076,0.915,0.913,0.9139,0.9165,0.924,0.9244,0.9247,0.9269,0.9276,0.9283,0,0,0,0,0,0,0.8953,0.8975,0.897,0.9019,0.9038,0.9059,0.9084,0.9078,0.9103,0.91,0.9102,0.9108,0.9151,0.9163,0.9139,0.9215,0.9193,0.9198,0.9206,0.9213,0.9219,0.9215,0.912,0,0,0,0,0,0.8963,0.8991,0.9009,0.9051,0.9061,0.9071,0.9087,0.9087,0.9108,0.9116,0.913,0.915,0.9178,0.9196,0.9223,0.9273,0.9278,0.9295,0.9301,0.9305,0.931,0.9337,0.9345,0.9261,0.9261,0.9261,0,0,0.8984,0.9,0.9018,0.9055,0.907,0.91,0.9078,0.911,0.9132,0.9121,0.9162,0.9173,0.9195,0.9242,0.9263,0.9252,0.9334,0.931,0.9314,0.9316,0.9341,0.9349,0.9356,0.9264,0.9263,0.9263,0,0,0.9038,0.9053,0.9089,0.9104,0.9128,0.9134,0.9142,0.9164,0.917,0.9211,0.9204,0.9229,0.9278,0.9294,0.9308,0.9367,0.936,0.9376,0.9405,0.9431,0.9438,0.9443,0.9464,0.9471,0.9381,0.9381,0.9381,0,0.9062,0.9106,0.9108,0.9141,0.9157,0.9148,0.9184,0.9199,0.923,0.9241,0.9229,0.9288,0.9303,0.9353,0.9367,0.9379,0.9389,0.9373,0.9437,0.9442,0.9448,0.9467,0.9475,0.9383,0.9383,0.9382,0.9382,0,0.9134,0.9164,0.919,0.922,0.9239,0.9273,0.928,0.9299,0.9298,0.9305,0.9346,0.9364,0.9393,0.9405,0.9404,0.9454,0.9447,0.9436,0.9413,0.9457,0.9476,0.9483,0.9385,0.9385,0.9384,0.9384,0,0,0.9203,0.9232,0.9242,0.9254,0.9279,0.9302,0.9336,0.9364,0.938,0.9402,0.9429,0.947,0.9459,0.9476,0.9477,0.9499,0.9544,0.9485,0.9486,0.9495,0.96,0.9608,0.9617,0.954,0.9541,0.9542,0.9598,0,0.9258,0.9317,0.9319,0.9373,0.94,0.9392,0.9421,0.9439,0.9447,0.9471,0.948,0.9508,0.9492,0.9502,0.9524,0.9534,0.9565,0.953,0.9565,0.9566,0.9559,0.9626,0.9635,0.9687,0.9605,0.9606,0.9607,0,0.9331,0.9354,0.941,0.943,0.9442,0.9468,0.9493,0.9517,0.9537,0.9541,0.9559,0.9556,0.959,0.9567,0.9613,0.9589,0.9603,0.961,0.9613,0.9616,0.9589,0.9631,0.9704,0.9711,0.9619,0.9618,0.9617,0,0.9375,0.942,0.9459,0.947,0.9494,0.9513,0.9524,0.9542,0.9559,0.9581,0.9592,0.9619,0.9633,0.9654,0.9658,0.9641,0.9704,0.9681,0.9708,0.9708,0.9722,0.9721,0.9797,0.9732,0.9732,0.9731,0.9731,0,0.9436,0.9471,0.9479,0.9503,0.9541,0.9543,0.9581,0.959,0.9607,0.9632,0.9627,0.9651,0.9655,0.968,0.9684,0.9721,0.9728,0.9732,0.9733,0.9732,0.9732,0.9742,0.9738,0.9733,0.9733,0.9733,0.9732,0,0.9492,0.9498,0.954,0.956,0.9565,0.9592,0.9609,0.9631,0.9638,0.967,0.9678,0.9689,0.9718,0.9724,0.9759,0.9761,0.9805,0.9803,0.9799,0.9798,0.9824,0.9822,0.991,0.9921,0.9848,0.9849,0.985,0,0.953,0.9557,0.9578,0.9595,0.9606,0.9633,0.965,0.9653,0.9671,0.9695,0.9715,0.9743,0.9766,0.9813,0.9824,0.985,0.9847,0.9876,0.9851,0.985,0.9847,0.9845,0.9848,0.9881,0.9882,0.9882,0.9883,0,0.9598,0.96,0.9624,0.965,0.967,0.969,0.971,0.9723,0.9729,0.9749,0.9778,0.9796,0.9831,0.9859,0.9885,0.9896,0.989,0.9891,0.9898,0.9898,0.9894,0.9896,0.9811,0.9889,0.9888,0.9888,0.9887,0.9887,0.9646,0.9668,0.9687,0.9714,0.9729,0.9747,0.9769,0.9778,0.9803,0.9831,0.9831,0.9863,0.9882,0.9916,0.9929,0.9954,0.9945,0.9956,0.9958,0.9961,0.9963,0.9891,0.9959,0.9958,0.9958,0.9958,0.9958,0,0.9712,0.9724,0.9749,0.9776,0.9797,0.979,0.981,0.9828,0.9857,0.9874,0.9897,0.993,0.9957,0.997,0.9996,1.0014,1.0012,1.0021,1.0019,1.0022,0.997,0.9961,1.0022,1.0022,1.0022,1.0022,1.0022,1.0022,0.975,0.9787,0.9791,0.9836,0.9847,0.9878,0.989,0.9907,0.9921,0.9958,0.998,0.9988,1.0004,1.0032,1.0056,1.0059,1.0069,1.0079,1.008,1.0032,1.0025,1.0019,1.001,1.0081,1.0081,1.013,1.013,1.0131]},{"header":{"parameterUnit":"m.s-1","parameterCategory":1,"la1":30.2991,"la2":30.254,"lo1":-89.0895,"lo2":-89.0444,"dy":0.0017,"dx":0.0017,"nx":28,"ny":28,"refTime":"2025-05-17T03:00:00:Z","depth":0,"parameterNumber":3,"parameterNumberName":"V-component_of_WINDS"},"data":[0,0,0,0,0,0,0,0,0,0,0,0,0,0,0,0,0,0,0,0,0,0,0,0,0,0,0,0,0,0,0,0,0,0,0,0,0,0,0,0,0,0,0,0,0,0,0,0,0,0,0,0,0,0,0,0,0,0,3.7566,3.7566,0,3.7594,3.7594,3.7595,3.7543,3.7541,3.7539,3.7537,3.7564,3.7566,3.7568,0,0,0,0,0,0,0,0,0,0,0,0,0,3.7464,3.7467,3.7566,3.7566,3.7567,3.7594,3.7594,3.7595,3.7543,3.7541,3.7539,3.7537,3.7563,3.7566,3.7569,0,0,0,0,0,0,0,0,0,0,0,0,0,3.7502,3.7467,3.7566,3.7544,3.7542,3.7594,3.7594,3.7595,3.7543,3.7541,3.7538,3.7536,3.7562,3.7565,3.7569,3.7642,0,0,3.7579,3.7581,0,0,0,0,0,0,0,0,3.75,3.7506,3.7547,3.7546,3.7544,3.7562,3.7568,3.7611,3.7544,3.7543,3.7537,3.7534,3.7565,3.7568,3.7579,3.7643,3.7644,3.758,3.7582,3.7583,3.7584,0,0,0,0,0,0,0,3.7497,3.7504,3.7577,3.7548,3.7546,3.7532,3.7534,3.7576,3.7568,3.7543,3.7539,3.7543,3.7564,3.7576,3.7579,3.7645,3.758,3.7583,3.7585,3.7586,3.777,3.7772,0,0,0,0,0,0,3.7498,3.7503,3.7576,3.7578,3.7515,3.7536,3.7539,3.7559,3.7568,3.7566,3.7545,3.7541,3.7571,3.7575,3.758,3.7666,3.7583,3.7587,3.7589,3.7767,3.777,3.7773,0,0,0,0,0,0,3.7496,3.7505,3.7575,3.7539,3.7547,3.754,3.7563,3.7561,3.7573,3.757,3.7568,3.7559,3.7569,3.7575,3.7627,3.7666,3.7588,3.7591,3.7764,3.7768,3.7772,3.7839,0,0,0,0,0,0,3.7493,3.7505,3.7533,3.754,3.7549,3.7623,3.7566,3.7563,3.7579,3.7573,3.7582,3.7581,3.7568,3.7622,3.7631,3.767,3.7594,3.776,3.7765,3.777,3.7833,3.7845,3.7855,0,0,0,0,0,3.749,3.755,3.7535,3.7544,3.7585,3.7625,3.763,3.7614,3.7583,3.7611,3.7608,3.7581,3.7661,3.7628,3.7637,3.7678,3.7757,3.7764,3.777,3.7828,3.7843,3.7855,0,0,0,0,0,0,3.7547,3.7551,3.7534,3.7599,3.7612,3.7616,3.7651,3.763,3.7652,3.7645,3.7623,3.7626,3.7682,3.7685,3.7648,3.7748,3.7704,3.7712,3.7745,3.7758,3.7769,3.7767,3.7597,0,0,0,0,0,3.7568,3.7601,3.7602,3.7659,3.7667,3.7658,3.7675,3.7661,3.7674,3.7679,3.7681,3.7693,3.7721,3.774,3.7765,3.7833,3.7834,3.7865,3.7876,3.7885,3.7893,3.7929,3.7943,3.7794,3.7794,3.7794,0,0,3.761,3.7616,3.7638,3.7671,3.7679,3.7713,3.7663,3.7701,3.7726,3.7684,3.7734,3.7736,3.7748,3.7808,3.7835,3.7812,3.7934,3.7893,3.79,3.7903,3.7937,3.7951,3.7963,3.7798,3.7797,3.7797,0,0,3.7704,3.7712,3.7761,3.7771,3.7785,3.7778,3.779,3.7798,3.7797,3.7847,3.7816,3.7845,3.7893,3.7903,3.7915,3.8013,3.7988,3.8021,3.8078,3.8113,3.8125,3.8135,3.817,3.8183,3.8029,3.8029,3.8029,0,3.7755,3.7806,3.7788,3.7829,3.7844,3.7808,3.7857,3.7867,3.7888,3.7899,3.7873,3.7933,3.7939,3.8001,3.8025,3.8036,3.8048,3.802,3.8125,3.8135,3.8144,3.8177,3.819,3.8033,3.8032,3.8032,3.8032,0,3.7867,3.7903,3.794,3.7963,3.7981,3.8026,3.8014,3.8035,3.802,3.8016,3.8066,3.8072,3.8098,3.8111,3.8097,3.8171,3.8157,3.8129,3.8083,3.8163,3.8193,3.8206,3.8039,3.8037,3.8036,3.8035,0,0,3.7999,3.8011,3.8025,3.8035,3.8047,3.8074,3.8116,3.8142,3.8161,3.8176,3.8211,3.8252,3.8226,3.8239,3.8225,3.8256,3.8333,3.8224,3.8224,3.8244,3.8415,3.8437,3.8452,3.8317,3.8319,3.8321,3.8414,0,3.8093,3.8167,3.8152,3.8223,3.8256,3.8223,3.8259,3.827,3.8268,3.8294,3.829,3.832,3.8284,3.8291,3.832,3.8318,3.8367,3.8311,3.8348,3.8349,3.8346,3.8468,3.8491,3.8579,3.8426,3.8428,3.843,0,3.8212,3.8233,3.8309,3.8316,3.8329,3.8362,3.8385,3.8411,3.8422,3.8418,3.8433,3.8413,3.8453,3.8407,3.8463,3.8425,3.8439,3.844,3.8443,3.8446,3.8395,3.8474,3.8607,3.862,3.8448,3.8447,3.8446,0,3.8301,3.8348,3.8399,3.8408,3.8418,3.8442,3.8447,3.8457,3.8473,3.8492,3.8503,3.8526,3.8539,3.8557,3.8543,3.8511,3.8601,3.8554,3.8599,3.8599,3.8619,3.8618,3.8756,3.8628,3.8628,3.8628,3.8627,0,3.8408,3.8455,3.8439,3.8471,3.8523,3.8505,3.8556,3.8557,3.8565,3.8596,3.8568,3.8597,3.8577,3.8604,3.8593,3.8641,3.8646,3.8644,3.864,3.8647,3.8647,3.8656,3.865,3.8631,3.863,3.863,3.8629,0,3.8516,3.8508,3.8561,3.8566,3.8568,3.8606,3.861,3.8639,3.8634,3.8672,3.868,3.8672,3.8703,3.8691,3.8723,3.8715,3.8777,3.8765,3.8773,3.877,3.8815,3.8812,3.8964,3.8983,3.8843,3.8844,3.8845,0,3.8585,3.8621,3.863,3.8649,3.8656,3.8686,3.8703,3.8686,3.8704,3.872,3.8747,3.8775,3.8797,3.8846,3.8843,3.8867,3.8856,3.8908,3.8859,3.8864,3.8857,3.8855,3.8859,3.8918,3.8919,3.892,3.8922,0,3.8708,3.8702,3.8728,3.8752,3.8773,3.8792,3.8807,3.8824,3.8807,3.8829,3.8861,3.8877,3.891,3.8938,3.8959,3.8963,3.894,3.8937,3.8948,3.8955,3.8959,3.8958,3.88,3.8933,3.8932,3.8931,3.8931,3.893,3.8799,3.8829,3.884,3.887,3.888,3.8895,3.8922,3.8921,3.8947,3.8973,3.8961,3.8997,3.9006,3.9033,3.904,3.9067,3.9047,3.9064,3.9068,3.9073,3.9079,3.8954,3.9071,3.9071,3.907,3.907,3.907,0,3.8921,3.8926,3.8954,3.8977,3.9,3.8976,3.8992,3.9012,3.9045,3.9056,3.9078,3.9114,3.914,3.9139,3.9164,3.9186,3.9175,3.9193,3.9191,3.9192,3.9095,3.9083,3.92,3.92,3.92,3.92,3.92,3.92,3.8987,3.9037,3.9032,3.9086,3.9091,3.9127,3.9138,3.9151,3.916,3.9202,3.9224,3.9223,3.9229,3.9254,3.9277,3.9276,3.9286,3.9308,3.9303,3.9212,3.9199,3.9187,3.9175,3.931,3.931,3.9397,3.9398,3.9399]}]]